Location: ?????? ??????
(44.3742°N, 135.2221°E)
Time: 03:22:37
(UTC+00:00)

Cosmos 2016 Rocket - Pass Details

Date: 19 May 2025
Orbit: 946 x 999 km, 83.0° (Epoch: 14 June)

Event Time Altitude Azimuth Distance (km) Brightness Sun altitude
Rises 15:39:33 0° 353° (N) 3,641 8.2 -24.9°
Reaches altitude 10° 15:42:04 10° 356° (N) 2,697 7.3 -24.8°
Maximum altitude 15:48:14 73° 81° (E) 1,010 4.0 -24.6°
Enters shadow 15:50:09 46° 152° (SSE) 1,278 4.3 -24.5°
